ECMWFFLT2_850_temp_021.txt.gz
Temp
25 25 25 25 24 22 22 23 21 22 25 24 20 19 20 20 19 20 20 20 23 25 26 28 28 28 28 28 28 29 29 28 28 27 27 26 25 25 24 24 24 24 24 24 25 26 27 27 27 26 26 26 26 25 25 25 25 24 23 23 23 23 23
24 26 26 25 26 25 22 21 22 24 25 24 22 19 19 19 18 20 20 20 21 22 23 27 29 28 28 28 28 29 29 28 28 28 27 26 26 25 25 25 25 24 24 25 25 25 26 27 28 28 28 27 26 26 25 26 26 25 25 24 23 23 23
23 25 25 23 25 26 24 24 25 24 21 20 21 19 19 19 18 19 20 20 21 21 22 26 27 28 29 29 28 28 29 29 29 28 27 27 26 26 25 25 24 24 24 25 25 25 26 27 28 28 28 28 27 26 25 25 26 26 26 25 24 23 23
23 24 24 22 22 24 25 25 26 25 23 21 21 20 20 19 19 19 19 19 20 23 26 27 28 28 29 29 29 28 28 29 29 29 29 28 26 26 26 25 25 25 25 25 25 26 26 26 27 28 28 27 27 27 26 25 25 25 24 25 25 25 24
22 22 23 23 23 23 23 22 23 23 23 23 22 21 21 20 19 19 19 19 21 25 28 29 29 29 29 29 29 29 29 29 29 29 30 29 28 27 27 27 26 26 25 25 25 25 26 25 26 27 26 26 27 27 27 26 25 24 24 24 24 25 25
21 22 24 26 26 25 24 23 23 23 23 22 20 20 21 21 20 20 20 19 22 26 27 28 30 30 30 30 29 29 29 29 29 30 31 30 29 29 28 28 27 26 26 26 25 25 25 25 25 25 25 25 26 26 27 27 26 25 24 24 24 25 24
22 23 25 25 26 26 26 25 25 25 25 22 20 19 20 21 20 21 20 19 22 27 27 28 30 30 30 30 29 29 30 29 29 30 31 30 29 28 28 27 27 26 26 27 25 24 25 25 25 25 25 24 25 26 26 26 26 26 26 25 25 25 25
22 24 25 24 24 25 25 25 26 26 25 24 23 22 21 21 20 20 20 19 22 27 27 27 28 28 29 30 29 28 29 29 29 29 30 30 29 28 27 26 27 27 26 26 26 25 25 25 25 25 25 25 25 25 25 25 26 27 26 25 25 26 26
19 21 22 23 23 23 22 22 24 25 25 26 25 23 21 20 20 21 20 19 22 26 25 25 26 26 28 29 28 28 28 28 28 28 29 31 30 29 28 28 27 27 26 26 26 26 25 25 25 25 25 25 25 25 25 25 26 26 25 25 25 26 26
18 18 18 19 19 20 20 20 21 22 23 24 24 22 20 19 20 21 20 20 23 26 26 25 26 26 27 29 29 28 27 27 28 29 29 30 30 30 30 29 28 27 27 27 27 26 26 26 25 25 25 25 25 25 26 26 25 25 24 24 25 25 25
17 16 16 16 16 17 18 19 19 20 21 22 23 22 20 20 20 20 21 22 23 25 27 28 28 27 27 29 30 29 27 27 28 29 30 30 30 30 30 30 28 27 27 27 27 27 27 26 26 26 26 26 25 25 26 26 25 24 24 25 25 25 25
15 15 15 16 16 16 17 18 18 19 20 20 20 20 21 22 20 19 22 24 22 24 28 29 29 29 28 29 30 29 28 29 29 29 30 30 31 32 31 30 30 29 28 28 27 28 27 27 27 26 26 26 26 26 26 26 25 25 25 25 25 25 25
15 16 16 16 16 16 17 17 17 18 19 19 19 19 20 22 21 20 23 24 22 24 27 28 29 29 29 30 30 28 28 30 30 29 29 30 31 32 32 32 31 31 30 29 28 28 28 27 27 26 26 26 26 26 26 26 26 26 26 26 26 25 25
15 16 16 16 16 16 16 17 17 18 18 19 19 19 20 21 21 22 23 23 23 25 27 28 30 30 29 29 28 27 28 31 31 30 29 30 32 32 32 32 32 32 31 30 29 29 28 28 27 27 27 27 27 26 26 26 26 26 26 27 27 25 25
15 16 16 16 16 16 16 17 18 18 18 19 19 19 20 20 20 22 23 22 23 25 26 27 28 28 27 27 27 28 30 31 30 30 30 32 32 32 32 32 32 32 32 31 29 28 28 29 28 28 27 27 27 27 26 26 27 26 26 27 27 26 26
15 16 16 16 17 17 17 17 18 19 19 19 20 21 21 21 21 22 21 21 23 25 26 26 26 26 25 26 27 28 29 29 29 29 30 32 32 32 32 32 32 32 32 31 30 29 29 29 28 28 28 28 27 27 27 27 27 27 27 27 27 27 27
15 16 16 16 16 17 17 18 19 19 20 20 21 22 22 23 23 22 21 22 25 26 26 26 27 27 27 27 27 27 28 28 28 29 31 32 32 32 32 32 32 33 32 32 31 30 30 29 29 29 29 28 28 28 28 27 27 26 26 27 27 27 26
14 15 16 16 16 16 17 18 18 19 19 19 19 20 21 22 23 23 24 25 26 26 26 26 27 27 28 28 27 28 28 28 28 30 31 31 32 32 32 33 33 32 32 32 32 31 31 30 29 29 28 28 29 29 28 27 26 25 26 26 26 26 26
14 15 15 15 15 16 17 18 18 18 18 18 18 18 20 21 21 22 23 25 25 26 26 26 27 27 28 27 26 27 28 27 27 29 30 31 31 31 32 32 33 32 32 32 33 32 31 30 28 28 28 28 28 28 27 27 27 26 26 25 25 25 25
14 14 15 15 16 17 18 18 18 18 18 17 17 19 20 19 18 19 20 22 23 24 25 26 26 26 26 25 24 25 26 27 27 28 29 30 30 31 31 32 32 32 32 32 32 32 31 30 29 28 28 28 27 27 27 27 27 27 26 25 25 25 25
14 14 15 16 16 17 18 18 18 17 17 17 17 18 19 18 16 16 17 18 19 21 22 24 24 23 24 24 24 24 25 26 27 27 28 29 29 30 30 31 32 32 31 31 31 30 31 31 30 29 28 27 27 26 26 27 27 26 26 26 26 26 26
14 14 15 15 15 16 17 17 17 17 17 17 16 17 17 16 16 16 16 16 17 18 19 21 21 22 23 24 25 26 25 25 26 26 27 27 27 28 29 30 30 30 30 30 30 30 30 31 30 29 28 27 27 26 26 26 26 26 26 26 26 26 26
13 13 14 14 15 16 17 17 17 17 17 17 16 17 17 16 15 16 16 16 16 17 17 19 20 21 23 26 27 27 25 24 24 25 25 25 25 26 27 28 29 29 29 30 29 29 30 29 29 28 28 27 27 26 26 26 26 26 26 27 27 27 26
12 12 13 14 15 17 17 17 17 17 17 16 17 17 17 15 14 15 15 15 16 16 16 17 18 21 23 24 24 23 23 22 23 23 23 23 24 25 26 27 28 28 29 29 29 29 29 28 28 27 27 27 26 26 26 26 26 26 27 27 27 27 26
11 11 12 14 15 17 17 17 17 17 17 17 17 17 16 15 15 15 15 15 15 15 15 16 18 20 20 19 18 19 20 21 21 21 22 22 23 24 25 26 27 27 28 28 28 28 28 28 27 27 26 26 26 26 26 26 26 26 26 26 26 26 25
10 11 12 12 14 16 17 17 17 17 17 17 17 16 15 15 15 15 14 15 15 14 14 15 17 17 17 16 16 17 19 19 19 20 20 21 21 22 23 24 25 26 27 27 27 27 27 27 27 27 26 25 25 25 25 25 25 25 25 26 26 25 25
11 10 10 11 12 15 16 16 17 18 18 17 16 15 15 15 15 15 14 14 14 13 13 14 15 16 15 15 15 16 17 18 18 19 19 20 20 21 21 22 23 25 26 27 27 27 26 26 26 26 25 25 24 24 24 24 24 24 25 25 25 25 25
10 10 11 11 13 13 14 14 15 17 16 15 14 15 15 15 15 14 14 14 13 13 13 14 14 14 14 14 15 15 16 16 17 17 18 19 19 20 20 21 23 24 25 26 26 26 26 26 26 25 25 24 24 23 23 24 24 24 24 24 24 24 24
9 10 11 12 12 13 12 13 14 14 15 14 13 14 15 14 14 13 13 13 13 13 13 13 14 14 14 14 14 15 15 15 15 16 17 17 18 19 20 21 22 23 24 25 25 25 24 24 24 24 24 24 24 23 23 23 24 24 24 23 23 23 23
9 10 11 11 12 13 13 13 13 13 14 13 13 13 14 14 13 13 12 13 12 12 13 14 14 14 14 14 14 15 15 15 15 15 16 16 17 18 19 20 21 22 23 23 24 24 23 23 23 23 23 23 23 23 23 23 23 23 24 23 23 23 23
8 9 10 12 12 12 12 12 12 13 13 13 13 13 14 14 14 13 12 12 12 12 13 13 14 14 14 14 14 15 15 15 15 15 15 16 17 18 18 19 19 20 21 22 22 23 23 22 22 22 22 22 22 22 22 23 23 23 23 23 23 23 23
7 8 10 11 11 10 10 10 11 12 13 13 12 13 14 14 14 13 12 12 12 13 12 13 14 14 14 14 14 15 15 15 15 15 15 15 16 16 17 17 17 18 20 21 21 22 22 22 22 22 22 22 22 22 22 22 22 23 23 23 23 23 22
7 7 9 10 10 11 11 12 12 12 13 13 13 13 14 15 15 14 13 12 12 13 13 13 13 14 14 14 14 15 15 15 15 15 15 15 15 15 16 16 16 17 18 20 21 21 21 21 21 22 22 22 21 22 22 22 22 22 22 22 22 22 21
6 7 9 9 10 11 11 12 12 12 12 13 14 14 14 15 15 15 14 13 13 13 14 13 13 13 13 14 14 14 15 15 15 15 15 15 15 15 15 16 16 16 16 18 19 20 20 20 20 21 21 21 21 21 21 22 22 21 21 21 21 21 21
7 9 9 9 9 9 9 10 11 11 11 13 15 14 14 14 15 15 14 14 14 14 13 14 14 13 13 14 14 14 15 15 15 15 15 15 15 15 15 15 15 15 15 16 17 18 18 18 19 19 19 20 20 20 20 20 21 21 21 21 21 21 21
7 8 8 8 7 8 8 9 10 10 10 12 15 15 14 13 14 15 15 15 15 14 13 14 14 14 14 14 14 14 14 15 15 15 15 15 15 15 15 15 16 16 15 16 16 16 16 17 18 18 18 19 19 19 19 19 20 20 20 20 21 21 21
7 7 7 7 7 7 8 8 8 9 10 11 14 15 14 13 14 15 15 15 15 15 14 14 14 15 15 15 15 14 14 14 15 15 15 15 15 15 15 16 16 16 16 16 16 16 17 17 18 18 18 19 19 19 19 19 19 20 20 20 20 21 21

ECMWFFLT2_850_temp_024.txt.gz
Temp
28 27 28 29 27 25 26 26 23 25 28 26 22 21 22 22 20 22 22 22 25 28 29 31 32 32 33 33 34 35 34 34 34 33 33 32 31 30 29 28 27 26 25 25 24 24 24 24 24 24 25 26 26 26 26 26 25 25 25 25 24 24 23
27 28 28 29 29 28 26 24 25 28 28 27 24 21 21 21 20 21 22 22 23 23 25 30 32 31 32 33 33 34 34 34 34 33 32 32 32 31 29 28 27 26 26 25 25 25 25 26 26 26 26 27 27 27 27 26 26 26 25 25 25 24 24
27 29 28 26 28 30 28 27 28 27 23 22 22 20 20 20 20 21 22 22 23 23 24 29 31 31 32 33 33 33 34 34 34 33 33 32 31 31 30 29 27 27 26 25 25 25 25 26 27 27 27 26 27 27 27 27 27 27 26 26 26 25 25
27 27 26 24 25 28 29 28 29 28 25 23 22 22 21 21 20 21 21 22 23 25 28 30 31 32 33 33 33 33 34 34 34 34 33 32 31 31 30 29 28 27 27 26 26 26 26 26 26 26 25 25 26 27 27 27 27 27 27 26 26 26 26
26 25 25 25 25 26 26 25 25 26 26 25 24 24 23 22 21 20 21 21 23 28 32 32 32 32 32 33 33 33 34 35 34 34 34 33 32 31 30 30 29 28 27 27 27 26 26 26 25 25 24 24 25 25 26 27 27 27 27 27 27 26 26
24 24 27 28 28 28 26 25 25 25 25 24 22 22 23 23 22 21 21 21 23 30 33 32 32 33 33 33 33 33 34 34 35 34 34 34 32 31 30 30 30 29 28 28 28 27 26 26 26 25 25 25 24 24 25 26 26 27 27 27 27 27 27
25 27 29 28 29 29 28 27 28 27 27 24 21 20 22 23 22 23 22 21 24 31 32 32 33 33 33 34 34 34 34 34 34 34 34 34 32 31 30 30 30 30 29 28 28 27 27 26 26 26 25 25 25 25 25 25 25 26 27 27 27 27 27
27 28 29 29 29 29 28 27 29 28 27 27 25 24 24 23 22 23 22 20 24 30 32 31 32 33 34 34 34 34 34 34 34 34 34 33 31 30 30 30 30 30 29 28 28 27 27 26 26 26 26 25 25 26 26 25 26 26 26 26 26 27 28
22 23 24 25 27 28 27 28 29 28 28 29 27 27 26 23 22 23 22 20 24 30 31 31 32 33 33 34 34 34 34 34 34 34 33 31 30 29 29 29 29 29 29 28 28 27 27 26 26 26 26 25 25 26 26 26 26 26 25 25 25 27 28
19 20 20 21 23 26 26 27 28 28 29 28 26 25 23 21 22 23 22 22 25 30 30 30 31 32 32 33 34 34 34 33 33 32 31 30 29 28 29 29 28 28 28 28 28 28 27 27 26 26 26 26 25 25 25 25 26 25 25 25 25 26 27
19 19 19 21 24 25 25 25 27 27 28 29 27 24 22 22 22 22 23 24 25 27 30 30 31 32 32 32 33 34 34 33 32 31 30 30 29 28 28 29 29 28 28 28 28 28 28 27 26 26 26 26 26 25 25 25 25 25 25 25 25 25 26
19 20 20 21 23 24 24 25 25 26 27 28 26 23 23 25 22 20 24 26 24 26 30 31 31 31 32 32 33 34 33 32 32 31 30 31 31 30 29 29 29 29 29 29 29 28 28 27 26 26 26 26 26 26 25 25 25 25 25 24 24 25 25
19 20 21 21 22 22 23 24 24 25 26 25 24 24 26 26 23 21 25 26 24 27 30 30 31 31 31 32 32 33 33 32 32 32 31 32 33 32 31 29 29 30 30 29 30 29 29 27 26 26 26 26 26 25 25 25 25 25 25 24 24 25 25
19 20 20 21 21 21 21 22 23 24 24 25 24 25 26 26 24 24 26 25 25 28 29 30 31 31 31 32 32 32 32 32 32 32 32 33 33 33 33 31 30 31 31 31 31 30 30 29 27 26 26 26 26 25 25 25 25 25 25 24 24 25 25
18 20 20 20 20 20 20 21 23 23 23 24 24 24 25 24 24 25 26 24 25 28 29 29 30 30 30 30 30 31 31 31 31 32 32 33 33 33 33 32 32 32 32 32 32 31 31 31 29 28 27 26 26 26 25 25 25 25 25 24 24 25 25
18 19 20 20 20 20 20 20 21 22 22 23 23 24 24 24 23 24 23 22 24 28 29 29 29 29 29 30 30 31 30 31 31 31 32 32 32 32 32 32 32 32 32 32 32 32 32 32 31 30 28 27 26 26 26 25 25 25 25 25 25 25 25
18 19 19 19 20 18 18 20 22 23 23 23 24 24 25 25 25 24 23 24 26 28 28 28 29 29 29 30 30 30 30 30 30 31 31 31 31 32 32 31 31 31 32 32 32 32 31 31 32 31 30 28 28 27 26 25 25 25 25 25 25 25 25
17 18 19 18 18 17 19 22 24 24 24 24 24 25 25 26 26 26 26 27 28 28 28 28 28 28 29 30 30 30 30 30 30 30 30 30 30 31 31 31 30 30 31 31 31 32 31 31 31 30 30 29 29 27 26 26 26 25 25 25 25 25 25
17 18 18 17 17 18 20 23 23 24 24 24 24 24 25 25 26 26 26 27 27 27 28 28 28 28 29 29 29 29 29 29 29 29 29 30 30 30 30 30 30 30 31 31 31 31 31 31 30 29 29 28 27 26 26 26 26 26 25 25 25 25 26
17 17 17 17 17 19 21 22 22 22 23 23 22 22 23 24 24 24 24 25 25 26 27 27 27 27 28 28 28 28 28 29 29 29 29 30 29 29 29 29 29 30 30 30 30 31 31 31 30 30 28 27 26 26 26 26 26 26 26 25 25 25 26
16 16 16 18 18 19 20 21 22 22 22 22 21 21 23 23 23 22 22 23 23 24 25 25 25 25 25 26 28 28 29 29 29 29 29 28 28 27 27 27 28 29 30 30 30 30 31 31 30 30 28 27 26 26 26 26 25 25 25 26 26 26 27
16 16 16 17 17 17 19 21 22 22 22 22 21 21 22 22 22 21 21 22 22 23 24 23 23 23 24 26 28 29 28 29 29 28 27 26 26 26 26 27 28 28 29 29 30 30 30 30 30 30 28 27 26 26 26 26 25 24 25 26 27 27 27
16 16 16 16 17 18 20 21 21 22 22 22 21 20 20 21 21 21 21 21 22 22 22 22 22 22 24 27 29 26 24 25 25 24 24 24 24 24 25 26 26 27 28 29 29 29 29 29 30 30 29 27 26 26 26 26 25 24 25 26 26 26 26
15 16 16 17 18 19 20 21 21 21 22 22 20 18 19 20 21 20 20 21 21 21 21 20 20 22 24 27 26 23 21 22 22 22 22 22 22 23 24 24 25 26 27 27 27 27 28 29 30 30 29 27 26 25 25 25 25 25 25 25 26 26 26
15 15 15 16 18 19 20 21 21 21 21 20 19 18 18 20 20 20 20 21 21 20 20 20 20 21 22 23 22 21 21 21 21 20 20 21 21 22 22 23 25 25 25 26 26 26 27 29 29 29 29 28 26 25 25 25 26 25 25 25 26 26 26
15 15 15 16 17 19 20 20 21 21 20 19 18 17 18 19 20 20 20 20 20 19 19 19 19 19 19 19 20 21 20 20 20 19 19 20 20 20 21 22 23 22 23 25 25 25 26 27 28 29 29 27 26 26 25 25 26 25 25 25 25 26 26
14 14 14 14 15 17 18 18 19 20 19 17 16 18 19 19 20 20 19 19 19 19 18 18 18 18 18 18 19 19 19 19 18 18 18 19 19 19 19 20 20 20 21 22 24 25 25 25 26 27 27 27 26 26 25 25 25 24 24 23 24 24 25
13 14 15 15 14 15 16 16 17 17 17 16 15 17 18 19 19 19 19 19 18 17 17 17 17 17 17 18 18 18 18 18 18 18 18 18 18 19 18 18 18 18 19 20 22 23 24 25 24 24 24 25 25 25 25 25 25 24 24 23 23 24 24
11 13 14 14 14 14 15 16 16 15 15 15 15 15 16 18 18 18 18 18 18 16 16 16 16 17 17 17 17 17 17 18 18 18 18 18 18 18 18 17 18 18 18 18 19 20 21 23 23 23 23 24 24 24 25 25 25 24 24 24 24 24 24
11 12 13 13 14 15 15 15 15 14 14 14 14 14 15 16 16 17 17 17 17 15 15 15 15 16 16 16 16 17 17 17 17 17 17 17 18 18 18 17 17 18 18 18 18 18 19 20 21 22 22 23 23 24 24 24 24 24 24 24 24 24 24
11 12 13 14 14 14 14 14 14 14 14 14 14 14 14 15 15 15 16 16 16 15 15 14 14 15 16 16 16 16 16 16 16 17 17 17 17 17 17 17 17 17 18 17 17 17 17 18 18 19 20 21 21 22 22 23 23 23 24 24 23 23 23
11 11 13 13 13 13 13 13 14 14 14 15 15 14 14 14 14 15 15 16 16 16 15 14 14 15 15 15 15 15 15 15 16 16 16 17 17 17 17 17 17 17 17 17 17 17 17 17 18 18 18 18 19 20 20 21 21 22 22 23 23 23 23
11 11 12 13 12 13 14 14 14 14 14 14 14 13 13 13 14 15 15 16 16 16 15 14 14 14 14 14 14 15 15 15 15 16 16 16 17 17 17 17 16 16 16 16 17 17 17 17 17 17 17 17 18 18 19 19 20 20 21 22 22 22 22
10 12 13 12 12 13 14 14 13 12 12 12 12 12 12 12 13 14 15 15 16 16 15 14 14 14 14 14 14 14 15 15 15 15 16 16 17 17 17 16 16 16 16 16 16 16 16 16 16 17 17 17 17 17 18 18 19 19 19 20 20 20 20
11 12 13 12 11 12 12 12 11 11 11 11 11 12 12 12 12 13 14 14 15 16 15 14 14 14 14 14 14 15 15 14 15 15 15 16 16 16 16 16 16 16 16 16 16 16 16 16 16 16 17 17 17 17 17 18 18 18 19 20 20 20 21
11 11 11 11 10 10 11 11 10 10 10 10 10 11 11 12 12 13 13 13 15 15 15 15 14 15 15 15 15 15 15 15 15 15 15 15 15 16 16 16 16 17 17 17 17 16 16 16 16 16 16 17 17 17 17 18 18 18 19 20 20 20 21
10 10 10 9 9 9 10 10 10 10 10 10 10 10 11 12 12 12 12 13 14 15 15 15 15 15 16 15 15 15 15 15 15 15 15 15 15 15 16 16 16 16 16 16 16 17 16 16 16 16 16 16 16 17 18 19 19 20 20 20 20 21 21

ECMWFFLT2_850_temp_030.txt.gz
Temp
33 32 32 33 31 28 29 29 26 28 31 29 24 22 25 24 22 23 24 24 28 31 32 35 36 36 36 36 36 37 37 35 34 32 32 32 32 31 29 29 28 28 27 26 26 26 25 25 25 24 24 24 23 23 22 22 23 24 25 25 24 24 24
32 33 32 33 33 32 29 26 27 31 32 30 27 23 23 23 21 23 24 24 25 25 27 33 36 35 36 36 36 36 37 36 35 33 32 33 33 32 30 29 29 28 27 26 26 26 26 25 25 25 24 24 24 23 23 22 22 23 25 26 25 25 25
31 34 31 29 32 34 32 29 32 31 26 25 25 23 22 22 21 22 23 24 25 24 26 31 34 34 35 35 36 36 36 37 36 34 33 33 33 33 32 30 29 29 28 27 27 27 27 26 25 25 25 24 24 23 23 23 23 24 25 26 26 25 25
31 32 29 26 28 32 33 32 33 31 27 25 25 24 23 22 21 22 23 23 24 27 31 33 34 35 35 35 36 36 36 37 37 35 33 33 33 33 32 31 30 30 29 29 28 27 27 27 26 25 25 24 24 23 23 23 23 24 25 25 25 25 25
30 28 28 27 27 29 29 29 28 28 29 28 27 26 25 24 22 22 22 22 24 31 36 35 35 35 35 35 35 36 36 37 37 35 33 33 34 34 33 32 31 30 30 29 29 28 28 27 26 26 25 25 24 24 23 23 23 23 24 25 25 25 25
27 27 31 31 31 31 30 28 28 28 28 27 24 24 25 25 23 23 23 22 24 33 37 36 36 36 35 35 36 36 36 37 37 36 35 34 33 33 33 32 32 31 30 30 30 29 28 27 27 26 26 26 25 24 23 23 23 23 23 24 25 25 26
29 31 32 32 31 33 32 31 31 31 30 27 22 21 23 25 24 25 24 22 25 34 37 36 37 36 36 36 36 36 36 37 37 36 36 34 33 33 34 33 32 31 30 30 30 29 28 27 27 27 26 26 25 25 24 24 23 23 23 24 24 25 25
30 32 33 32 33 33 31 31 32 32 31 29 27 26 26 25 23 24 24 22 25 33 36 36 36 36 36 36 36 36 36 36 37 37 36 35 33 34 34 33 33 31 30 30 30 29 28 28 28 27 27 26 26 26 25 24 24 24 24 24 24 25 25
24 27 28 28 29 31 30 31 32 32 32 32 31 30 29 25 23 24 23 21 25 32 35 35 35 36 36 36 36 36 36 36 37 36 36 35 34 34 35 34 32 31 30 30 30 29 29 28 28 28 27 27 27 26 26 25 25 24 24 24 24 25 25
21 22 22 24 26 28 30 31 32 32 32 32 29 27 25 23 24 25 24 23 27 32 34 34 34 35 35 36 37 37 36 36 35 34 34 34 34 34 34 34 33 32 31 31 30 30 29 29 29 28 27 27 27 27 26 26 26 25 25 24 24 24 25
22 22 24 28 29 27 27 29 31 31 32 33 31 26 23 24 24 24 25 26 26 29 33 33 34 35 35 35 36 35 35 34 33 32 32 33 33 34 34 33 32 32 32 31 31 30 30 29 29 29 28 27 27 27 27 27 27 26 26 25 25 24 24
25 26 27 29 29 28 27 28 30 31 32 32 30 26 26 28 25 22 27 29 26 28 33 34 34 35 35 35 35 34 33 33 33 32 32 33 33 33 33 33 32 32 31 31 31 30 30 30 29 29 28 28 27 27 27 27 27 27 26 26 26 25 25
26 28 28 28 28 28 29 29 30 31 31 31 29 28 30 30 25 24 29 30 28 30 34 34 34 35 35 35 36 35 33 33 33 33 33 33 33 32 32 32 32 32 32 31 31 30 30 29 29 29 29 28 28 28 28 27 27 27 27 27 26 26 25
26 28 28 29 28 27 27 29 31 32 31 31 30 30 32 32 29 29 31 30 30 33 34 34 35 35 34 35 35 33 33 33 34 34 34 34 34 33 32 32 32 31 31 31 30 30 30 29 29 29 29 29 28 28 28 28 27 28 28 27 27 26 26
23 26 27 28 28 26 26 27 30 32 31 31 31 31 33 31 29 32 32 29 30 33 33 33 33 33 33 33 33 32 33 33 34 34 35 34 34 33 32 31 31 31 30 30 30 30 29 29 29 29 29 29 29 28 28 28 28 28 28 28 27 27 27
20 24 26 27 27 27 25 24 28 31 30 30 31 31 32 31 29 30 29 27 29 32 32 31 32 32 32 32 32 32 33 33 33 33 34 33 33 33 32 31 31 30 30 31 30 30 29 29 29 29 29 29 29 29 29 28 28 28 28 28 28 27 27
19 23 25 26 26 23 21 24 28 30 30 31 32 32 33 33 32 30 28 28 32 32 32 32 32 32 31 31 32 32 32 32 32 32 32 32 33 33 33 32 31 30 30 31 31 30 29 29 29 29 29 29 29 29 29 29 29 28 28 28 28 28 27
19 22 24 24 22 19 21 27 30 30 30 30 31 31 32 33 33 32 31 32 33 32 31 32 31 31 32 32 32 32 31 31 32 32 32 32 32 32 32 32 32 31 31 30 30 30 30 29 29 29 29 29 29 29 29 29 29 29 28 28 28 28 28
19 21 22 21 19 20 25 29 30 30 30 30 29 31 33 33 33 33 33 32 32 31 31 32 31 31 32 31 31 31 31 31 31 31 32 32 32 32 32 32 31 30 30 30 29 30 30 30 30 30 29 29 29 29 29 29 29 29 28 28 28 28 28
20 20 20 19 20 24 28 28 29 30 30 30 28 28 32 33 33 32 31 31 32 31 31 31 31 31 31 31 30 30 30 31 31 31 32 31 31 31 31 30 29 29 29 29 29 29 30 30 30 30 30 30 29 29 29 28 28 28 28 28 28 28 28
20 19 19 20 21 23 25 26 29 30 30 29 28 26 28 31 32 31 30 31 31 31 31 31 31 30 30 29 29 30 30 30 30 30 30 29 28 28 28 28 28 28 28 28 28 29 28 28 29 29 30 31 31 30 29 29 28 28 28 28 28 28 28
19 18 19 20 19 20 22 25 28 30 29 30 29 27 26 29 30 31 31 30 30 30 31 31 30 28 28 28 29 29 29 29 28 27 27 27 26 27 27 27 26 26 27 28 28 28 28 28 28 28 28 30 30 31 30 29 29 28 28 28 28 28 28
18 18 18 18 19 20 23 26 28 29 29 29 28 25 23 23 25 28 29 30 28 28 29 29 28 27 26 27 28 27 27 27 26 25 25 25 25 26 26 25 24 25 26 26 27 27 27 26 26 27 27 28 29 30 30 30 29 29 28 28 28 28 28
17 17 17 19 20 19 21 25 28 28 28 27 25 22 19 20 22 24 27 28 28 27 27 27 26 26 26 26 26 25 25 26 25 25 25 24 24 25 25 25 24 25 25 25 25 25 25 26 26 26 26 27 28 29 30 30 29 29 28 28 28 27 27
17 17 17 19 19 17 18 22 25 26 27 26 22 18 17 19 22 23 24 26 25 25 25 25 25 25 25 24 24 24 24 24 24 24 24 24 24 24 24 24 24 24 24 24 23 24 24 25 25 25 25 26 27 28 28 29 29 29 29 28 28 27 27
17 17 17 19 18 17 18 21 21 22 22 20 18 17 18 20 21 21 22 23 22 22 23 23 23 22 22 23 23 23 23 23 23 23 23 23 23 23 23 24 23 22 23 23 22 23 23 23 24 24 25 25 26 26 27 28 28 28 29 28 28 27 27
17 17 17 18 16 16 19 20 19 18 18 17 16 17 18 19 20 19 20 20 20 20 21 21 21 21 21 22 22 22 22 22 22 22 22 22 22 22 23 23 23 22 22 22 22 22 22 22 23 24 24 25 25 25 26 26 27 27 28 28 28 27 27
16 16 17 16 14 16 19 19 17 17 18 18 18 18 16 18 19 19 18 19 18 19 20 20 20 21 20 20 21 21 21 21 21 21 21 21 21 21 22 22 22 21 22 21 21 21 21 21 22 24 24 24 25 25 25 25 26 26 27 27 27 27 26
16 16 16 15 15 17 19 18 17 18 18 18 19 18 16 17 18 18 18 18 18 18 18 19 20 20 20 20 20 20 20 20 20 20 20 20 21 21 21 21 21 21 22 22 21 21 21 21 21 23 24 24 24 24 24 24 25 25 26 26 26 26 26
15 16 16 16 17 18 18 17 17 17 18 18 18 17 16 16 17 17 17 17 17 17 17 18 19 19 19 19 19 19 19 19 19 19 19 19 20 20 20 20 20 20 21 21 20 20 20 20 21 22 23 23 23 23 23 23 24 25 25 25 25 25 25
14 15 17 17 17 18 18 18 17 17 17 18 18 17 16 16 16 17 17 16 17 17 17 17 17 17 18 19 19 18 18 18 18 19 18 18 19 19 20 19 19 20 20 20 20 20 20 20 20 21 21 21 22 22 22 22 23 24 24 24 24 24 24
14 15 17 17 17 17 17 17 17 17 17 17 17 16 16 16 16 16 16 16 16 17 17 16 16 16 17 18 18 18 18 18 18 18 18 18 18 19 19 19 19 19 19 20 20 19 19 19 20 20 20 20 21 21 21 21 22 23 23 23 23 23 23
14 15 17 17 17 16 17 17 17 17 17 16 16 15 15 16 16 16 16 16 16 16 16 16 16 16 16 17 17 18 18 18 17 17 17 17 18 19 19 19 19 19 19 19 19 19 19 19 19 20 20 20 20 21 21 21 21 22 22 22 22 23 23
13 15 17 17 16 16 17 17 17 17 16 16 16 15 15 15 15 15 15 15 15 15 15 16 16 16 16 16 16 17 17 17 17 17 17 17 18 18 19 19 19 19 19 19 18 19 19 19 20 20 20 20 21 21 21 21 21 21 22 22 22 23 23
14 15 16 16 16 16 16 17 17 16 15 15 15 15 15 14 14 14 15 15 14 14 15 15 15 16 15 15 15 16 17 17 17 17 17 17 18 18 19 19 19 18 18 18 18 18 19 19 20 21 21 21 21 21 21 21 21 21 22 22 22 22 23
14 14 15 15 15 15 15 15 16 16 15 15 14 14 14 14 14 14 14 14 14 14 14 14 15 15 15 15 15 15 16 17 17 17 17 17 18 18 18 19 18 18 18 18 18 18 19 19 20 20 21 21 21 21 21 20 21 21 22 22 22 22 22
13 14 14 14 14 14 14 14 14 14 14 14 14 14 14 14 14 14 14 14 14 14 14 14 15 15 15 15 15 15 15 16 16 16 17 17 17 18 18 18 18 18 18 18 18 18 18 19 19 19 20 20 20 20 20 20 20 21 21 22 22 21 21

ECMWFFLT2_850_temp_033.txt.gz
Temp
31 30 30 32 30 27 28 28 25 26 29 28 23 21 23 23 21 21 22 23 26 28 30 33 34 34 34 34 34 33 31 30 30 29 29 29 28 28 27 27 27 26 26 26 25 25 25 24 24 24 23 23 23 22 22 21 21 21 21 21 21 22 23
30 31 31 32 32 30 27 25 26 29 30 29 25 22 21 21 20 21 23 22 23 23 25 31 33 32 33 34 34 34 32 31 30 30 29 29 29 28 28 28 27 27 26 26 26 25 25 25 24 24 24 23 23 22 22 22 21 21 21 21 21 21 22
30 32 31 29 31 33 30 28 30 29 24 23 24 22 20 20 20 21 22 22 23 22 24 29 31 32 33 33 34 34 33 31 31 30 29 29 29 28 28 28 27 27 27 26 26 26 25 25 25 24 24 23 23 23 22 22 22 22 21 21 21 21 21
30 31 29 25 27 31 31 30 31 30 26 24 23 23 22 21 20 21 22 22 23 25 28 30 31 32 33 33 33 34 33 32 31 31 30 29 29 28 28 28 28 27 27 26 26 26 25 25 25 24 24 24 23 23 23 22 22 22 21 21 21 21 21
29 27 28 27 27 28 28 27 27 27 27 27 25 25 24 23 21 21 22 21 23 29 32 32 32 33 33 34 33 33 33 32 31 31 30 30 29 29 29 28 28 28 28 27 27 26 26 25 25 25 24 24 24 23 23 23 22 22 21 21 21 21 21
25 26 30 31 30 30 29 27 26 26 26 25 23 22 24 24 22 22 22 21 23 31 34 33 33 33 33 34 34 33 33 32 31 31 31 30 30 29 29 29 29 29 28 27 27 26 26 25 25 25 24 24 24 24 23 23 23 22 22 22 21 21 21
26 29 32 31 31 32 31 30 30 29 28 25 21 20 22 23 23 24 23 21 25 32 33 32 34 34 33 34 34 34 33 33 32 31 31 31 30 30 30 29 29 29 28 28 27 27 27 26 25 25 24 24 24 24 24 23 23 23 22 22 22 22 21
27 30 32 32 32 32 30 29 31 30 29 28 26 25 25 23 22 23 22 21 25 32 33 32 34 34 34 34 33 33 33 33 32 31 31 31 30 30 30 30 29 29 28 27 27 27 27 26 26 25 25 25 24 24 24 24 23 23 22 22 22 22 22
23 24 26 27 29 29 29 29 31 31 30 30 29 28 27 24 22 23 22 20 25 31 33 33 34 34 34 34 34 34 33 32 32 31 32 31 31 31 30 30 29 29 28 27 27 28 27 27 26 26 25 25 25 24 24 24 23 23 23 22 22 22 22
19 20 21 23 25 27 28 29 30 30 31 30 28 26 24 22 23 24 23 22 26 31 34 34 34 34 34 34 34 34 33 32 32 31 32 32 31 30 30 30 29 29 29 28 29 29 28 27 27 26 26 25 25 25 25 24 23 23 23 22 22 22 22
19 20 22 26 28 26 26 28 29 30 31 31 29 25 22 23 23 23 24 25 26 29 32 33 34 35 33 32 32 31 31 32 33 32 31 31 31 30 30 30 30 29 29 29 29 29 28 27 27 26 26 26 25 25 25 25 24 23 23 22 22 22 22
21 23 24 28 29 27 26 27 28 29 30 30 28 25 25 26 24 21 26 29 26 27 32 33 33 33 31 30 31 29 29 31 33 33 32 31 31 30 31 30 30 30 29 29 29 29 28 28 27 27 27 26 26 26 25 25 25 24 23 23 22 22 22
23 24 25 27 28 28 28 28 28 29 30 29 27 26 28 29 25 23 27 29 27 30 33 32 32 32 30 30 31 30 30 31 32 31 31 31 31 30 31 31 30 30 30 29 29 29 28 28 28 28 27 27 26 26 26 26 25 25 24 24 23 23 22
22 24 24 26 28 27 27 28 29 30 30 30 29 29 31 30 28 28 29 28 29 31 31 30 31 31 30 30 31 31 31 31 31 31 31 31 30 30 30 31 31 31 30 30 30 29 29 29 28 28 27 27 27 26 26 26 26 25 25 24 24 23 23
20 22 22 24 27 27 26 27 29 29 29 30 30 30 31 30 29 30 29 27 27 29 30 30 29 29 30 30 29 30 30 31 31 31 31 31 30 30 30 30 30 30 30 30 30 30 29 29 29 28 27 27 27 27 27 26 26 26 26 25 25 24 24
18 20 21 23 26 26 24 25 27 27 27 28 29 30 31 30 29 29 27 25 26 28 30 30 29 29 29 29 28 28 29 31 31 31 31 31 30 30 30 30 30 30 30 30 30 30 30 30 29 28 28 28 27 27 27 27 27 26 26 26 26 25 25
18 20 22 23 24 22 21 23 26 27 28 28 30 31 32 31 31 29 26 26 28 29 29 30 29 29 29 29 28 28 30 31 31 31 31 31 31 31 30 30 30 30 30 30 30 30 30 30 29 28 28 28 28 28 28 27 27 27 27 26 26 26 26
17 19 21 22 20 19 21 26 28 29 29 28 28 29 31 32 32 30 29 28 29 29 29 29 28 28 28 29 29 30 31 31 30 30 30 31 31 31 30 30 30 30 30 30 30 30 30 29 29 29 29 29 29 28 28 28 27 27 27 27 27 27 26
16 18 19 19 18 19 24 28 29 29 29 29 27 25 25 27 28 29 29 29 28 29 29 28 27 28 29 29 28 28 29 29 28 28 28 29 29 28 29 29 29 29 29 29 29 29 29 29 29 29 29 29 29 29 28 28 28 28 27 27 27 27 27
17 17 17 18 19 23 27 28 26 25 26 28 26 22 20 21 21 23 27 29 29 28 28 27 27 28 28 27 26 26 27 27 27 27 27 26 26 26 27 28 28 29 29 29 29 29 28 29 29 29 29 29 29 29 29 28 28 28 28 28 27 27 27
16 16 17 19 21 22 24 23 21 20 22 25 25 21 19 20 20 21 24 27 28 28 27 28 28 27 26 24 24 25 25 25 25 26 25 25 25 26 26 26 27 28 29 29 29 29 29 29 29 29 29 29 29 29 29 29 29 28 28 28 28 28 28
16 15 16 18 19 19 18 18 19 19 20 24 26 22 18 19 20 20 22 25 27 28 27 27 27 26 23 22 23 24 24 24 24 25 25 25 25 25 25 26 26 27 27 28 28 29 30 30 30 30 29 29 28 28 29 29 29 29 29 28 28 28 28
16 16 16 17 17 17 16 16 18 19 19 23 26 22 17 18 19 20 20 21 23 25 25 25 25 23 22 21 22 23 23 23 24 24 24 24 24 24 25 25 25 26 26 26 26 27 28 28 29 29 29 29 28 28 28 28 28 29 29 29 29 28 28
16 16 16 16 16 16 16 17 18 18 19 23 24 20 16 17 18 19 19 20 20 22 22 21 22 21 21 21 22 23 23 22 22 23 23 23 24 24 24 24 24 25 25 25 26 26 26 26 26 27 28 29 28 28 28 28 28 28 29 29 29 29 28
16 15 16 16 16 15 15 16 17 18 20 21 20 16 15 17 18 18 19 18 19 20 20 20 20 20 20 21 21 21 21 21 21 21 22 22 23 24 23 23 23 24 24 24 25 25 25 26 26 26 27 28 28 28 28 28 28 28 28 28 29 29 29
15 15 15 16 15 15 15 16 17 18 18 17 16 15 16 17 18 18 18 17 18 19 19 20 20 20 20 20 20 20 20 20 20 20 21 21 22 23 23 22 22 23 23 23 24 24 25 26 26 25 25 26 27 28 28 28 28 28 28 28 28 29 29
15 15 15 14 14 15 15 16 16 16 15 14 15 16 16 17 18 17 17 17 17 17 18 18 19 19 19 19 19 19 19 19 19 19 20 20 21 21 22 21 21 22 22 22 22 22 23 24 24 25 24 25 25 26 27 28 28 28 28 28 28 28 28
13 13 13 13 13 14 15 15 14 14 15 15 15 15 15 16 16 16 16 17 17 17 17 17 17 18 18 19 19 18 18 18 18 19 19 19 19 20 20 20 21 21 21 21 21 21 21 22 23 23 23 23 24 24 25 26 27 27 28 28 28 28 28
13 13 13 14 14 14 16 16 15 15 15 16 16 15 15 15 16 16 16 16 16 16 16 16 17 17 17 17 18 18 18 18 18 18 18 18 19 19 19 19 20 21 21 20 20 21 20 21 22 21 21 22 23 24 24 25 25 26 27 27 27 27 27
14 14 15 15 15 15 16 16 16 15 15 15 16 16 15 15 15 16 16 16 16 16 16 16 16 16 16 17 17 17 18 18 18 18 18 18 18 19 19 19 19 20 20 20 20 20 20 20 21 21 21 21 22 22 23 23 24 25 26 26 27 26 26
13 14 15 15 15 16 17 16 16 16 16 15 15 15 15 15 15 15 15 16 16 16 16 16 16 16 16 16 16 16 17 17 17 18 18 18 18 18 18 18 19 19 20 19 19 19 20 20 20 20 20 21 21 22 22 23 23 24 25 25 26 26 26
13 13 14 15 15 16 17 17 16 16 16 15 15 15 15 15 15 15 15 15 15 15 15 15 15 16 16 16 16 16 16 16 17 17 18 18 18 18 18 18 19 19 19 19 19 19 19 20 20 20 20 21 21 21 22 22 23 23 24 24 25 25 25
13 14 14 15 15 15 16 15 15 15 15 15 15 15 15 15 15 14 14 15 15 15 15 15 15 15 15 15 16 16 16 16 16 16 17 18 18 18 18 18 18 19 19 19 19 19 19 19 19 20 20 20 21 21 21 22 22 23 23 23 24 24 24
11 12 13 12 12 12 13 14 14 14 14 14 15 15 15 15 14 14 14 14 14 14 14 14 15 15 15 15 15 15 16 16 16 16 17 17 18 18 18 18 19 19 19 19 19 19 19 19 19 20 20 20 20 21 21 21 21 22 22 23 23 23 23
9 10 11 10 10 10 12 12 13 14 14 14 14 14 14 14 14 14 14 13 14 14 14 14 14 14 15 15 15 15 16 16 16 16 16 17 18 18 18 18 18 19 19 19 19 19 19 19 19 20 20 20 20 20 20 21 21 21 22 22 22 23 23
9 9 9 9 9 10 10 10 11 12 13 13 13 14 14 14 14 14 14 14 14 14 14 14 14 14 15 15 15 15 15 16 17 16 16 16 17 17 17 17 18 18 18 18 18 18 18 19 19 20 20 20 20 20 20 21 21 21 21 21 21 22 22
8 8 8 8 8 9 9 10 10 12 13 13 13 13 13 14 14 14 14 14 14 14 13 14 14 14 14 15 15 15 15 16 16 16 16 16 17 17 17 17 17 18 18 18 18 18 19 19 20 20 20 19 19 20 20 21 21 21 21 21 21 21 22

ECMWFFLT2_850_temp_036.txt.gz
Temp
27 27 27 29 27 24 25 25 23 24 27 27 22 20 22 22 20 21 22 22 24 27 29 31 31 30 30 30 28 27 28 28 28 27 27 27 26 26 26 25 25 25 25 25 24 24 24 24 24 23 23 23 23 22 22 22 22 21 21 21 21 21 20
27 28 28 29 29 27 25 23 24 27 28 27 24 21 21 21 19 20 22 21 22 23 25 30 32 30 30 30 29 28 27 27 27 27 27 27 26 26 26 26 25 25 25 25 25 24 24 24 24 24 23 23 23 23 22 22 22 21 21 21 21 21 20
27 28 27 26 28 29 27 26 28 28 24 22 23 21 20 20 19 20 21 21 22 22 23 28 31 31 31 30 29 28 27 27 27 27 27 27 27 26 26 25 25 25 25 25 25 24 24 24 24 24 24 23 23 22 22 22 22 22 22 21 21 21 20
27 28 26 23 24 28 28 28 29 28 25 22 22 22 21 20 19 20 20 21 21 24 26 29 30 31 32 31 29 27 27 27 27 27 27 27 27 26 26 25 25 25 25 25 25 25 25 25 24 24 23 23 23 22 22 22 22 22 22 21 21 21 21
25 25 25 25 25 26 26 25 25 26 25 24 24 23 23 22 20 20 20 20 21 26 29 30 30 30 31 31 29 28 27 28 28 28 28 27 27 26 26 26 25 25 25 25 25 25 25 25 24 24 23 23 23 23 22 22 22 22 22 22 21 21 21
20 23 27 28 27 27 26 25 25 25 25 23 22 22 22 23 21 21 21 20 22 28 30 30 30 30 31 32 31 28 28 28 28 28 28 27 27 27 26 26 26 25 25 25 25 25 25 24 24 24 24 23 23 23 23 22 22 22 22 22 22 21 21
20 24 27 28 29 29 28 27 27 27 26 23 21 20 21 22 22 22 22 20 23 30 31 30 31 31 31 31 31 29 28 28 29 28 28 28 27 27 27 26 26 26 25 25 25 25 24 24 24 24 24 23 23 23 23 22 22 22 22 22 22 22 21
21 24 26 28 29 29 28 27 28 28 27 26 24 23 23 22 21 22 21 20 23 30 31 29 30 30 31 31 30 29 28 28 29 29 28 28 27 27 27 26 26 26 25 25 25 25 25 24 24 24 24 24 23 23 23 22 22 22 22 22 22 22 22
20 22 23 24 26 28 27 27 28 28 28 28 27 26 25 22 21 22 21 20 23 30 32 30 29 29 30 31 30 29 29 29 29 29 29 28 28 27 27 26 26 26 25 25 25 25 25 25 24 24 24 24 23 23 23 23 22 22 22 22 22 22 22
18 18 19 20 22 25 27 28 28 28 28 27 26 24 22 21 22 22 21 21 24 30 33 31 29 28 30 30 29 29 29 29 29 29 29 28 28 27 27 27 27 26 26 25 25 25 25 25 25 25 24 24 24 23 23 23 23 22 22 22 22 22 22
16 17 18 19 20 22 24 26 27 27 28 28 27 24 21 22 23 22 22 24 25 28 32 32 30 29 30 30 29 28 29 29 29 29 29 28 28 27 27 27 27 27 26 26 26 26 26 25 25 25 25 24 24 23 23 23 23 23 22 22 22 22 22
16 17 18 19 21 21 23 26 27 27 28 28 26 23 23 24 23 21 24 25 24 27 32 32 30 29 30 31 30 28 28 29 29 29 29 28 28 28 28 27 27 27 26 26 26 26 26 26 25 25 25 24 24 24 24 23 23 23 23 23 23 23 22
15 16 18 20 22 22 24 26 27 27 28 27 25 25 25 26 23 23 26 26 24 29 32 31 30 29 28 30 30 28 28 29 29 29 29 28 28 28 28 28 28 28 27 27 26 26 26 26 25 25 25 25 24 24 24 24 23 23 23 23 23 23 22
14 17 19 21 23 23 24 26 28 28 28 27 27 26 26 26 26 27 28 26 26 29 29 28 28 27 26 27 28 27 28 29 29 29 28 28 28 28 28 28 28 28 28 27 27 27 27 26 26 26 25 25 25 24 24 24 24 24 23 23 23 23 23
14 17 19 21 22 23 23 25 27 28 28 28 27 28 27 27 26 27 27 25 26 27 26 26 26 26 26 27 26 26 28 29 29 29 29 29 29 28 28 28 28 28 28 27 27 27 27 27 27 27 26 26 25 25 24 24 24 24 24 23 23 23 23
14 16 17 19 22 23 22 21 23 25 27 27 26 26 26 25 25 26 25 24 25 26 26 25 25 24 25 26 25 25 27 29 29 29 29 29 29 29 29 28 28 28 28 27 27 27 28 28 28 27 27 26 26 25 25 25 24 24 24 24 23 23 24
13 16 16 17 20 21 19 18 19 21 23 23 22 21 20 20 23 25 25 25 26 26 25 24 24 24 24 24 23 23 25 27 28 28 29 29 29 29 29 28 29 29 28 28 28 28 29 29 29 28 28 27 27 26 26 26 25 25 24 24 24 24 24
13 15 15 16 18 18 18 18 18 19 20 19 18 17 17 18 20 22 24 26 27 25 24 23 23 23 23 23 23 23 24 25 26 27 27 27 28 28 28 28 28 28 28 28 28 28 28 28 28 28 28 27 27 27 27 26 26 25 25 25 24 24 24
13 14 15 16 17 17 18 19 18 18 19 19 17 17 17 17 18 19 22 24 25 23 23 23 22 22 22 23 23 23 23 24 24 25 25 26 27 27 27 27 27 27 27 27 27 27 27 27 27 27 27 27 27 27 27 27 26 26 25 25 25 25 25
13 14 14 16 17 18 18 17 17 17 17 17 18 17 16 17 17 17 19 22 24 23 22 22 22 22 22 22 22 23 23 23 23 23 24 25 26 26 26 27 27 27 27 27 27 27 27 27 27 27 27 27 27 27 27 27 27 26 26 26 25 25 25
14 13 13 14 16 18 17 15 15 16 16 16 17 17 16 16 17 17 17 20 21 21 21 22 22 22 22 21 21 21 22 22 23 23 23 24 24 25 25 26 26 26 27 27 27 27 27 27 27 27 27 27 27 28 28 27 27 27 26 26 26 26 26
13 13 13 14 16 16 14 13 14 15 15 16 17 17 16 16 17 17 17 18 19 20 20 21 22 22 21 19 19 20 21 21 22 22 23 23 24 24 24 25 25 26 26 27 27 27 27 27 27 27 27 27 27 27 27 27 27 27 27 27 26 26 26
12 13 13 13 13 13 12 12 13 14 15 16 17 17 16 15 16 17 17 16 18 19 19 19 20 20 19 18 18 19 20 20 21 21 22 23 23 23 24 24 24 25 26 26 26 27 27 27 27 27 27 27 27 27 27 27 27 27 27 27 27 27 27
12 13 14 12 11 11 12 12 12 14 15 16 17 17 16 15 15 16 16 16 16 17 18 18 18 18 18 17 18 19 19 20 20 20 21 21 22 22 23 24 24 25 26 27 27 27 27 27 27 27 27 28 27 27 27 27 27 27 27 27 27 27 27
12 13 14 12 10 10 11 12 12 14 16 17 16 15 14 14 15 16 16 16 16 16 17 17 17 17 17 17 18 18 19 20 20 20 20 20 21 21 22 23 24 25 26 26 27 27 27 27 27 27 27 27 27 27 27 27 27 27 27 27 27 27 27
12 13 14 12 11 11 11 11 13 15 15 15 14 13 13 13 14 15 15 15 15 15 16 16 16 17 17 17 18 18 18 19 19 19 20 20 21 21 21 22 23 24 25 26 26 26 26 27 27 28 28 28 27 27 27 27 27 27 27 27 27 27 28
12 12 12 11 11 10 11 11 12 13 13 13 13 13 13 12 12 14 14 15 15 15 15 15 15 16 16 16 17 17 18 18 18 19 19 19 20 20 20 21 21 22 24 25 25 24 25 25 26 27 27 28 27 26 26 26 26 27 27 27 27 27 27
11 10 11 11 11 11 11 11 12 12 12 13 13 13 13 12 12 13 13 14 14 15 15 15 15 15 15 16 16 16 16 17 18 18 18 19 19 19 20 20 20 20 21 22 22 23 23 23 24 25 25 26 25 25 25 25 25 26 27 27 27 27 27
11 11 12 13 13 12 12 12 12 12 12 13 13 13 13 12 12 12 13 13 14 14 15 15 14 15 15 15 16 16 16 16 17 17 18 18 19 19 20 20 20 20 20 20 20 21 21 22 22 22 22 22 23 23 23 23 24 24 25 26 27 27 27
12 12 12 12 11 12 13 12 11 11 12 12 13 13 13 12 12 12 12 12 13 14 14 15 15 15 15 15 16 16 16 16 16 17 18 18 18 19 20 20 20 20 20 20 20 20 20 21 21 21 21 21 21 21 22 22 23 23 24 25 25 26 27
11 11 11 10 10 11 12 11 11 11 11 11 12 12 12 12 12 12 12 12 13 13 14 14 15 15 15 16 16 16 16 16 16 17 17 18 18 18 19 19 19 19 20 20 20 20 20 20 20 20 20 20 20 21 21 21 22 23 23 24 24 25 26
10 11 10 9 9 11 11 10 10 10 10 10 11 12 12 13 13 13 13 13 12 13 13 14 14 15 15 15 16 16 16 16 16 17 17 17 18 18 18 19 19 19 19 19 19 19 19 19 19 19 20 20 20 20 21 21 22 22 23 23 23 24 25
9 10 9 9 9 10 11 10 9 9 9 10 10 11 11 12 13 13 13 13 13 13 13 13 14 14 15 15 16 16 17 17 17 17 17 17 17 18 18 18 19 18 19 19 19 19 19 19 19 19 20 20 20 20 20 21 21 22 23 23 23 23 24
6 8 8 8 7 8 9 9 9 9 8 9 10 10 10 11 12 13 13 13 13 13 13 13 13 14 14 15 15 16 17 17 17 17 17 17 17 17 18 18 18 18 18 19 19 19 19 19 19 20 20 20 20 20 20 20 21 21 22 22 22 23 23
5 7 7 7 7 7 7 7 8 8 8 8 9 10 10 10 11 12 12 13 13 13 13 13 13 14 14 14 15 16 16 17 17 17 17 17 17 17 17 17 17 18 18 19 19 19 19 19 19 19 20 20 20 20 20 20 20 20 21 22 22 22 23
5 6 6 6 6 6 6 6 7 8 8 8 8 10 11 10 11 12 12 12 13 13 13 13 14 14 14 14 14 15 16 16 17 17 17 17 17 17 17 17 17 17 18 18 19 19 18 18 19 19 19 20 20 20 20 20 20 20 21 21 21 22 22
4 4 5 4 4 5 5 5 7 9 9 9 9 10 11 11 11 11 12 12 13 13 13 13 13 14 14 14 14 15 15 15 16 17 17 17 17 17 17 17 17 17 17 18 18 18 18 18 18 19 19 20 20 20 20 20 20 20 20 21 21 21 22

ECMWFFLT2_850_temp_042.txt.gz
Temp
18 20 22 23 22 20 20 21 20 20 23 22 19 18 19 19 18 19 19 19 21 22 25 27 26 25 25 25 26 26 26 26 26 25 25 25 25 25 24 24 24 23 23 23 23 23 22 22 21 21 21 21 21 21 21 21 21 21 21 21 21 21 21
18 18 19 22 23 22 21 19 20 23 24 23 20 18 18 18 17 18 19 19 20 20 22 26 27 26 26 25 25 26 26 26 25 25 26 25 25 25 25 25 24 24 24 23 23 23 23 23 22 22 21 21 21 21 22 22 21 21 21 21 21 21 21
16 16 18 21 22 24 23 21 23 23 20 19 20 18 18 18 17 18 19 19 20 20 21 25 26 27 27 26 25 26 26 25 25 25 26 25 25 25 25 25 24 24 24 23 23 23 23 23 22 22 22 21 21 21 21 22 22 22 22 22 21 21 21
14 16 18 19 20 23 23 22 23 23 21 19 19 19 19 18 17 18 19 19 20 21 24 26 27 28 28 27 25 26 26 26 25 26 26 25 25 25 25 25 25 24 24 24 24 23 23 23 22 22 22 21 21 21 21 22 22 22 22 22 22 21 21
14 16 18 19 20 20 21 21 21 21 22 21 20 20 20 19 18 18 18 18 20 23 25 28 29 28 28 28 27 26 25 26 26 26 26 26 25 25 25 25 25 25 25 24 24 24 23 23 22 22 22 22 22 21 21 21 22 22 22 22 21 21 21
12 15 16 17 17 17 17 19 21 21 21 20 19 19 19 20 19 19 19 18 20 25 25 26 28 27 27 27 27 27 26 25 27 27 27 26 26 26 26 26 26 25 25 25 24 24 23 23 22 22 22 22 22 22 21 21 21 22 22 22 22 21 21
11 13 14 15 15 15 16 18 20 22 22 20 19 18 19 20 19 20 20 17 21 27 26 26 28 27 26 25 25 26 26 26 27 27 27 27 26 27 26 26 26 26 26 25 24 24 23 23 23 22 22 22 22 22 22 21 21 22 22 22 22 22 22
13 15 15 15 15 15 16 17 18 20 21 21 22 20 20 20 19 19 19 17 21 26 26 25 27 26 25 25 24 25 26 26 27 27 27 28 27 27 27 26 26 26 25 25 24 23 23 23 23 23 22 22 22 22 22 22 22 22 22 22 22 22 22
16 17 18 17 15 14 14 14 15 16 18 20 22 22 20 20 19 20 19 18 21 24 24 24 26 25 26 25 24 25 26 26 27 27 27 28 27 27 27 26 26 26 25 25 24 24 23 23 23 23 22 22 22 22 22 22 22 22 22 22 22 22 22
15 16 16 14 13 12 12 13 14 14 15 17 18 20 20 19 19 20 19 19 22 24 25 26 26 26 27 26 24 25 26 26 26 27 27 28 27 27 27 26 26 25 25 25 24 24 24 24 24 23 23 22 22 22 23 23 23 22 22 22 22 22 22
12 12 12 11 10 10 11 12 12 13 14 14 16 18 19 19 20 19 20 22 22 24 26 27 27 27 28 28 27 25 25 27 28 27 28 28 28 28 27 27 26 26 25 25 25 24 24 24 24 23 23 23 23 23 23 23 23 22 22 22 22 22 22
10 10 10 11 11 11 11 11 12 13 14 14 15 16 18 20 20 19 21 23 21 24 26 26 26 27 27 29 27 24 25 29 30 29 29 28 27 27 27 26 26 26 25 25 25 24 24 24 24 23 23 23 23 23 23 23 22 22 22 22 22 22 22
10 10 10 11 11 10 11 11 12 13 14 14 15 15 17 20 20 20 23 23 23 25 25 22 22 22 23 24 25 24 25 26 27 28 28 27 27 27 26 26 26 26 26 25 25 24 24 24 24 23 23 23 23 23 23 23 22 22 22 22 22 22 22
9 10 10 10 10 11 11 12 13 14 14 14 15 16 17 19 20 22 24 25 25 23 20 19 19 18 18 19 20 20 21 22 24 25 26 26 26 26 26 26 26 26 26 26 25 24 24 24 24 23 23 23 23 23 23 23 23 23 22 22 22 22 22
9 10 10 11 11 11 12 14 14 14 14 15 16 16 17 18 20 22 23 24 24 21 18 18 18 17 17 17 17 17 18 20 23 24 24 25 26 26 26 26 27 27 26 25 25 24 24 24 24 24 24 23 23 23 23 23 23 23 22 22 22 22 22
9 10 11 11 11 12 13 14 13 13 14 15 15 15 15 15 17 20 21 21 21 19 18 18 17 17 17 17 17 17 17 19 21 23 24 25 26 26 26 26 27 26 25 25 25 24 24 25 24 24 24 23 23 23 23 23 23 23 22 22 22 22 23
9 11 10 10 12 14 15 13 13 13 13 14 14 14 14 13 15 17 18 18 17 17 17 18 17 17 17 17 17 17 17 18 20 23 25 25 26 26 26 26 27 26 25 25 25 25 25 25 25 25 24 24 24 24 23 23 23 23 22 22 22 22 22
9 10 9 10 13 16 15 13 12 12 13 13 13 13 13 13 14 14 15 16 16 16 17 17 18 18 17 17 17 17 17 17 19 22 25 25 25 26 26 26 26 26 25 26 25 25 25 26 26 25 24 24 24 23 23 23 23 23 22 22 22 22 22
8 9 10 12 15 15 14 13 13 12 13 13 12 13 13 12 12 13 13 14 15 16 17 17 17 18 18 18 17 17 17 17 18 21 24 26 25 25 25 25 26 26 26 25 25 25 25 25 25 24 24 24 23 23 23 23 23 23 22 22 22 22 23
8 9 10 13 14 13 13 13 12 12 12 12 12 13 13 12 12 12 12 13 14 15 17 17 17 19 19 18 17 17 17 17 18 19 22 25 26 26 25 25 25 26 26 25 25 25 25 25 25 24 24 24 23 23 23 23 23 23 23 23 23 23 23
8 9 9 11 13 13 12 11 11 11 11 11 11 12 12 12 11 11 11 12 13 15 16 17 18 20 19 18 18 17 16 17 18 18 20 24 26 26 26 26 25 25 25 25 25 25 25 25 25 24 24 24 24 23 23 23 23 23 23 23 23 23 23
8 8 9 11 13 13 11 9 9 10 11 11 11 11 12 12 11 11 11 11 12 14 15 15 18 20 19 18 17 16 16 17 18 18 19 21 24 26 26 26 25 25 25 25 25 25 25 25 25 25 24 24 24 23 23 23 23 23 23 24 24 24 24
7 7 9 11 12 12 9 7 8 9 10 11 11 12 12 11 11 10 10 10 11 13 14 14 16 18 18 17 16 15 16 17 17 18 18 19 21 24 25 25 25 25 25 25 25 25 25 25 25 25 25 24 24 24 23 24 23 23 24 24 24 25 25
6 7 9 9 10 9 8 7 8 9 9 10 12 13 12 11 10 10 10 10 11 12 13 13 13 14 15 15 15 15 15 17 17 17 18 18 19 21 23 24 25 25 25 25 25 25 25 25 25 25 25 25 25 24 24 24 23 24 24 25 25 25 25
7 8 9 9 9 8 8 8 8 9 10 11 12 12 11 10 10 10 9 9 10 11 12 12 11 12 13 14 14 14 16 17 17 17 17 18 18 19 21 22 23 24 25 25 25 25 25 26 26 26 25 25 25 24 24 24 24 24 25 25 25 25 25
8 9 9 10 9 8 7 8 8 9 10 11 10 10 9 9 9 9 9 9 9 9 11 11 11 11 12 12 13 14 15 16 16 17 17 18 18 18 19 20 22 23 23 24 25 25 25 25 26 26 26 25 25 24 24 24 24 24 24 25 25 25 25
8 9 9 9 9 8 7 7 7 8 8 8 7 7 8 7 7 8 8 8 8 8 9 10 11 11 11 12 13 14 15 16 16 17 17 17 18 18 19 20 20 21 22 23 23 24 24 25 25 25 25 25 25 24 24 24 24 24 24 24 24 24 24
7 8 8 8 7 7 7 7 7 6 6 6 6 6 6 6 6 6 7 8 8 8 8 9 10 10 10 11 13 14 15 15 15 16 16 17 17 18 19 19 20 21 21 22 22 23 23 24 24 24 25 25 24 24 24 24 23 24 24 24 24 24 24
7 7 7 7 6 6 7 7 7 6 6 5 5 5 5 6 6 6 6 7 7 8 8 9 10 10 10 11 12 13 14 14 15 16 16 17 17 17 18 19 19 20 20 21 21 22 22 22 23 23 24 24 24 23 23 23 23 23 23 24 24 24 24
6 7 7 6 6 6 6 7 7 6 6 6 5 5 5 5 6 6 6 7 7 8 8 8 9 10 10 10 11 12 13 14 15 15 16 16 17 17 18 18 19 19 20 20 21 21 21 21 22 22 23 23 23 23 23 23 23 24 24 24 24 24 24
6 7 7 6 5 5 6 7 7 6 6 6 5 5 5 5 5 6 7 7 8 8 8 8 9 10 10 10 11 12 12 13 15 15 15 16 16 17 17 18 18 19 19 19 20 20 20 20 21 21 22 23 23 23 23 23 24 24 24 24 24 25 25
6 7 7 5 5 6 7 6 6 6 6 6 6 5 5 5 5 6 7 7 8 8 9 8 8 10 11 10 11 12 12 12 14 15 15 15 16 16 17 17 18 18 18 18 19 19 19 19 20 20 21 22 22 23 23 24 24 24 24 24 24 24 25
5 6 6 5 5 6 7 6 6 6 5 5 5 6 6 6 6 6 7 7 8 8 9 9 8 9 11 11 11 12 12 12 13 15 15 15 16 16 16 17 17 17 18 18 18 18 19 19 19 20 20 20 21 22 23 23 24 24 24 24 24 24 24
5 5 5 4 4 5 5 5 5 5 4 4 4 5 6 7 7 6 7 8 8 8 8 9 9 9 11 11 11 11 12 13 13 14 15 15 16 16 16 16 16 17 17 17 18 18 18 19 19 19 19 20 20 20 21 21 22 23 23 24 23 23 23
4 4 4 4 4 4 4 4 4 4 4 4 4 5 6 7 7 7 6 7 8 8 8 9 9 9 10 12 11 11 12 13 14 14 14 15 15 16 16 16 16 16 16 17 17 17 18 18 19 19 19 19 19 20 20 20 21 21 22 22 22 22 22
4 4 4 4 4 4 4 4 4 4 4 4 4 5 5 6 7 7 7 7 8 8 7 8 9 9 10 11 12 11 11 13 14 14 14 15 15 15 16 16 16 16 16 16 16 17 17 18 18 19 19 19 19 20 20 20 20 21 21 21 21 21 21
4 4 4 4 4 4 4 4 4 4 5 5 5 5 5 6 7 8 8 8 8 8 7 8 9 9 10 11 12 12 12 12 13 14 14 15 15 15 16 16 16 16 16 16 16 16 17 17 18 18 19 19 19 19 20 20 20 21 21 21 21 21 21

ECMWFFLT2_850_temp_045.txt.gz
Temp
18 18 19 21 22 21 22 21 20 21 23 22 19 18 19 19 18 19 19 19 22 23 24 27 27 26 28 28 28 29 29 28 27 27 26 26 25 25 24 24 23 23 23 22 22 22 21 22 22 22 22 23 23 23 22 22 21 21 21 21 21 21 21
19 18 18 20 21 22 21 20 21 23 23 22 20 18 18 18 17 19 19 19 20 20 21 26 27 26 27 28 28 29 29 29 28 27 27 26 26 26 25 24 24 23 23 23 23 22 22 22 22 22 22 23 23 23 23 22 22 22 22 21 22 22 22
17 18 19 20 21 22 22 22 24 23 20 19 19 18 18 18 17 18 19 19 20 20 21 25 26 26 27 28 27 28 29 29 28 28 27 27 26 26 25 24 24 24 23 23 23 22 22 22 22 22 22 22 22 23 23 22 22 22 22 22 22 21 22
16 18 19 19 20 22 23 23 24 23 21 20 19 19 19 18 18 18 19 19 20 22 24 26 27 28 28 28 27 27 28 29 28 28 28 27 26 26 25 25 24 24 24 24 23 23 23 22 22 22 22 22 22 22 22 22 22 22 22 22 22 22 22
16 18 19 20 20 21 21 21 21 22 22 21 21 20 20 19 18 18 18 18 19 24 27 27 28 28 28 29 28 27 28 29 28 28 28 27 26 26 26 25 25 24 24 24 24 24 23 22 22 22 22 22 22 21 22 22 22 22 22 21 22 22 22
16 18 19 18 18 18 18 19 20 21 21 21 19 19 20 20 19 19 19 18 20 25 27 27 28 29 29 30 29 29 29 29 29 28 27 27 27 27 26 26 25 25 25 24 24 23 23 22 22 22 22 22 22 22 22 22 22 22 22 22 22 22 22
15 17 17 17 17 17 16 17 19 21 21 21 19 18 19 20 19 20 20 18 21 26 27 26 28 29 29 30 30 30 31 30 29 28 27 27 27 27 27 26 26 25 25 25 24 23 23 23 23 23 22 22 22 22 22 22 22 22 22 22 22 22 22
15 16 17 17 16 17 17 17 18 18 19 19 19 19 20 20 19 20 19 18 20 26 28 27 27 27 28 28 28 29 30 30 29 29 28 27 27 27 27 26 26 26 25 25 24 23 23 23 23 23 23 22 22 22 22 22 22 22 22 22 22 22 22
15 16 17 17 17 17 17 16 16 16 17 18 18 20 20 19 19 20 19 18 21 25 27 27 28 27 26 28 28 27 28 28 28 28 27 27 27 27 27 26 26 25 25 25 24 24 23 23 23 23 23 23 22 22 23 23 22 22 22 22 22 23 23
15 16 15 15 15 16 16 15 15 15 16 17 17 19 19 18 20 20 19 19 22 25 26 26 27 27 26 28 28 27 27 27 27 27 27 26 26 26 26 26 26 25 25 25 25 24 24 24 23 23 23 23 23 23 23 23 23 23 22 22 23 23 23
13 13 12 11 12 13 14 15 15 15 16 16 16 17 18 18 19 19 20 21 22 24 26 26 27 27 27 27 27 27 27 26 26 27 27 27 27 26 26 26 26 25 25 25 25 25 24 24 24 24 24 23 23 23 23 23 23 23 23 23 23 23 23
11 11 11 11 12 12 13 14 15 15 16 15 16 16 17 18 18 19 21 23 21 23 26 25 25 25 25 25 26 25 24 24 24 25 25 25 26 26 26 26 25 25 25 25 25 25 24 24 24 24 24 24 23 23 23 23 23 23 23 23 23 23 23
11 12 12 12 12 12 13 13 14 15 15 15 15 16 17 17 17 18 21 22 21 22 23 22 22 22 22 22 22 22 21 22 22 23 24 25 25 26 26 26 26 26 26 25 25 25 25 24 24 24 24 24 23 23 23 23 23 23 23 23 23 23 23
11 11 12 12 12 12 13 13 14 15 15 16 16 17 17 17 17 19 20 21 21 20 20 20 20 20 20 20 20 20 20 20 20 21 23 24 26 26 26 26 27 27 26 26 25 25 25 24 24 24 24 24 24 23 23 23 23 23 23 24 24 23 23
10 11 12 12 13 13 13 13 15 15 16 16 17 16 17 17 17 18 19 20 20 20 19 19 20 20 20 20 20 20 20 19 19 20 21 22 24 26 26 26 27 27 27 26 26 25 25 25 24 24 24 24 24 24 23 23 23 23 24 24 24 23 23
10 12 12 13 13 13 13 13 15 15 16 16 15 14 14 14 15 17 18 19 19 18 18 19 20 20 20 20 20 19 19 18 19 19 20 21 22 24 25 26 26 27 27 26 26 25 25 25 24 24 24 24 24 24 23 23 23 23 24 24 24 23 23
10 12 12 12 12 12 13 14 15 15 15 15 14 13 13 13 14 15 17 17 16 16 16 18 19 20 19 19 19 18 18 18 18 18 19 20 20 22 24 25 25 26 26 26 26 26 26 25 25 25 25 25 24 24 24 23 23 23 24 24 24 23 23
9 11 12 11 12 13 14 15 15 15 15 14 13 12 12 12 12 13 14 14 14 14 15 17 18 19 19 18 18 18 17 17 17 17 18 19 20 21 23 25 25 25 26 26 26 26 26 26 25 25 25 24 24 24 23 23 23 23 23 23 23 23 23
9 10 11 11 12 13 13 13 14 15 15 14 13 12 11 12 11 11 12 12 12 13 14 16 17 18 19 18 18 17 16 16 17 17 18 19 19 20 23 24 25 25 26 26 26 26 26 25 24 24 24 24 24 23 23 23 23 23 23 23 23 23 23
8 9 10 11 12 13 13 13 12 13 13 14 14 12 11 11 11 10 11 11 11 12 14 16 17 17 19 20 18 17 16 16 16 16 18 18 19 20 22 24 24 25 26 26 26 26 25 24 24 24 24 24 23 23 23 23 23 23 23 23 23 23 23
7 9 11 11 12 12 12 12 11 10 11 12 13 12 11 11 11 10 10 10 11 11 13 15 16 17 20 20 19 17 15 15 15 16 17 18 18 20 22 23 24 25 25 25 25 24 24 24 24 24 24 24 23 23 23 23 23 23 23 23 24 24 24
8 9 10 11 11 11 10 10 10 10 10 11 12 12 11 10 10 10 10 10 10 10 12 13 15 18 20 19 17 16 14 15 15 15 17 18 18 20 22 23 24 25 25 25 24 24 24 24 24 24 24 23 23 23 23 23 23 23 23 24 24 24 24
7 8 9 10 11 10 8 8 9 10 10 10 11 13 12 10 9 9 9 9 10 10 11 12 13 16 16 15 14 13 13 14 15 15 17 17 17 19 21 22 24 25 25 25 24 24 24 24 24 24 24 23 23 23 23 24 23 23 24 24 24 24 24
7 8 9 10 10 9 8 8 9 10 10 10 12 14 12 9 8 8 8 8 9 9 10 11 12 12 11 11 11 11 12 13 14 15 17 17 17 18 20 21 23 24 25 25 25 24 25 25 25 24 24 24 24 24 24 24 24 24 25 25 25 25 25
7 8 8 9 9 8 7 8 9 9 9 11 12 12 9 7 7 7 7 7 8 8 9 10 10 10 10 9 10 10 11 13 14 16 17 17 17 18 19 20 22 23 24 25 25 25 25 25 25 24 24 24 24 24 24 24 24 25 26 26 26 25 25
8 8 8 9 9 7 7 7 8 9 10 11 10 8 6 6 6 6 6 6 6 7 8 9 9 9 9 9 9 10 10 11 13 15 17 17 17 17 18 19 21 22 23 24 24 25 25 25 25 25 24 24 24 24 24 25 26 26 26 26 26 25 25
8 8 9 9 8 7 6 7 7 8 8 8 7 6 6 6 6 5 6 6 6 6 7 8 8 8 9 9 9 10 10 11 13 15 16 16 17 17 17 18 20 21 22 23 23 24 24 24 24 24 24 24 24 24 25 26 26 26 26 26 26 25 25
7 8 8 7 6 6 6 6 6 6 6 5 5 6 6 5 5 5 5 6 6 6 6 7 7 8 8 9 9 9 10 12 13 14 15 16 17 17 17 18 18 19 20 22 22 23 23 23 24 24 24 24 24 24 25 26 26 26 26 26 25 25 25
6 6 6 5 5 6 6 6 6 5 5 5 5 5 5 5 5 5 5 5 6 6 6 6 7 8 8 8 9 9 10 11 12 13 15 16 16 17 17 18 18 18 19 20 21 22 22 23 23 23 24 24 24 24 25 25 25 25 26 25 25 25 25
6 5 5 5 5 5 6 6 6 5 5 5 5 5 5 4 5 5 5 5 6 6 6 6 7 8 8 8 9 10 10 11 12 13 15 16 16 17 17 18 18 18 19 19 20 21 22 22 22 22 23 23 24 24 24 24 25 25 25 25 25 25 25
5 6 5 5 5 5 6 6 6 6 6 6 5 5 5 5 5 6 6 6 6 6 6 6 7 8 8 8 9 10 10 11 12 13 14 15 16 16 17 17 18 18 19 19 19 20 20 21 21 22 22 22 23 23 23 24 24 24 24 25 25 25 25
5 6 6 5 5 6 6 5 5 5 5 6 6 6 5 5 6 6 6 7 6 6 6 7 7 9 9 8 9 10 10 11 12 12 13 14 15 16 17 17 18 18 19 19 19 19 19 20 20 21 21 22 22 22 23 23 23 24 24 24 24 25 25
6 6 6 5 5 6 6 5 5 5 5 5 5 6 6 6 6 6 7 7 7 6 7 7 7 8 9 9 9 10 10 11 11 12 12 13 14 15 16 17 17 18 18 19 19 19 19 19 20 20 20 20 21 21 21 22 22 23 23 23 23 24 24
5 5 5 4 4 5 5 5 5 5 4 4 5 5 6 6 5 5 6 7 7 7 7 7 7 8 9 9 9 10 10 11 11 12 12 12 13 14 16 17 17 17 18 18 18 19 19 19 19 20 20 20 20 20 21 21 21 22 22 22 22 23 24
4 4 4 4 4 4 4 4 5 4 4 4 4 5 5 5 5 5 6 6 7 7 8 8 8 8 9 9 9 10 11 11 11 11 12 12 13 13 14 16 17 17 17 18 18 18 19 19 19 19 20 20 20 20 21 21 21 22 22 22 22 23 23
4 4 4 4 4 4 4 4 4 4 4 4 4 5 5 5 5 5 5 6 6 7 7 8 8 8 8 9 9 10 11 11 11 11 12 12 12 13 14 15 16 16 16 17 17 17 18 18 19 19 19 20 20 20 21 21 21 21 22 22 23 23 23
4 3 3 3 3 4 4 4 4 4 4 4 4 4 4 5 5 5 5 6 6 6 6 7 8 8 8 9 9 10 11 11 11 11 11 12 13 13 14 15 15 16 16 16 16 17 17 17 18 18 19 19 20 20 20 20 20 21 21 22 23 23 23

ECMWFFLT2_850_temp_048.txt.gz
Temp
24 24 24 26 24 23 24 24 21 23 26 25 21 20 21 21 19 20 21 21 24 26 27 29 29 29 30 31 31 31 31 31 31 31 31 30 30 30 28 27 26 25 25 24 23 23 23 22 22 22 22 22 22 22 22 23 23 23 23 22 22 22 22
23 23 24 25 25 25 24 22 23 25 26 25 22 20 20 20 19 20 21 21 22 22 23 28 29 29 30 30 31 31 31 31 31 31 31 30 30 30 29 28 27 26 25 24 24 24 23 23 23 23 23 23 23 22 23 23 24 23 23 23 22 22 22
22 23 22 22 24 26 24 24 26 25 21 21 21 19 19 19 19 20 21 21 22 21 23 27 29 29 30 30 31 31 32 32 32 32 31 30 30 30 29 28 27 26 26 25 24 24 24 23 23 23 23 23 22 23 23 24 24 24 23 23 22 22 22
21 22 21 20 21 24 24 25 26 25 23 21 21 21 20 19 19 19 20 20 21 23 26 28 29 30 30 30 31 31 32 33 32 32 32 31 30 30 30 29 28 27 26 26 25 25 24 24 23 23 22 22 23 23 23 24 23 23 24 23 23 22 22
20 19 20 21 21 23 23 22 22 23 24 24 23 22 21 20 19 19 20 20 21 26 30 30 30 30 30 30 31 31 32 33 33 32 32 32 31 31 30 30 29 28 27 26 26 25 25 25 24 23 23 23 23 23 23 23 23 23 24 24 23 23 23
18 19 22 23 23 23 23 22 22 22 23 22 21 20 21 22 20 20 20 19 22 28 30 30 30 30 31 31 31 31 32 32 32 33 32 32 31 31 31 31 30 29 28 27 26 26 25 25 24 24 23 23 23 23 23 23 23 23 23 23 24 24 23
18 20 22 22 22 22 22 22 23 24 24 22 20 19 21 21 21 21 21 19 23 29 31 30 31 31 31 32 32 32 33 32 32 33 32 32 31 31 31 31 31 30 28 27 27 26 25 25 25 24 24 24 23 23 23 23 23 23 23 23 23 24 24
17 18 20 21 21 21 21 21 23 24 24 24 23 21 22 21 20 21 20 19 22 28 30 29 30 31 31 32 32 32 32 32 33 33 32 32 31 31 31 31 31 30 29 28 27 26 25 25 25 24 24 24 24 23 23 23 23 23 23 22 22 23 24
16 17 18 19 20 21 20 22 23 24 24 24 23 22 21 20 20 21 20 19 22 28 30 29 30 30 31 32 32 32 32 32 33 33 32 32 31 30 31 31 31 30 29 28 27 26 25 25 25 24 24 24 24 24 24 24 23 23 23 22 22 22 23
15 16 16 17 18 19 20 22 23 23 23 23 22 21 20 19 20 21 20 20 24 28 29 28 29 30 30 32 32 32 31 31 31 31 30 31 30 29 29 30 30 30 29 28 26 26 25 25 25 24 24 24 24 24 24 24 24 23 23 22 22 22 22
14 15 14 15 16 16 17 20 21 21 21 22 22 20 19 20 20 20 21 22 23 26 28 28 29 30 30 30 30 30 29 29 29 29 28 29 29 28 28 29 29 29 28 27 26 25 25 25 25 24 24 24 24 24 24 24 24 23 23 23 22 22 22
13 14 14 15 15 15 16 17 18 19 20 21 20 19 20 21 20 19 22 24 22 25 28 28 28 27 27 27 27 27 27 27 27 27 27 28 29 28 28 28 28 28 27 26 26 25 25 25 25 25 24 24 24 24 24 24 24 23 23 23 22 22 22
13 14 14 15 15 15 16 16 16 18 19 19 19 20 21 22 20 19 23 24 23 26 28 27 25 25 26 26 26 26 26 26 26 26 27 28 29 29 29 28 27 27 27 26 25 25 25 25 25 25 25 24 24 24 24 24 24 24 23 23 22 22 22
12 13 14 15 15 15 16 16 17 18 18 19 19 20 22 22 21 22 23 23 23 25 25 24 24 25 25 26 25 25 25 25 25 25 26 27 27 28 28 28 27 27 26 26 25 25 25 25 25 25 25 25 24 24 24 24 24 24 23 23 22 22 22
12 13 14 14 15 15 15 16 17 18 18 19 20 20 21 21 21 22 22 22 23 24 22 22 24 24 25 25 25 25 24 23 23 24 24 25 25 25 26 26 27 27 27 26 25 25 26 25 25 25 25 25 24 24 24 24 24 24 23 22 22 22 22
11 12 13 14 15 16 16 16 17 17 18 19 19 19 20 20 20 21 21 21 22 21 19 21 23 24 25 25 24 24 22 21 21 22 22 23 23 23 24 24 25 26 27 27 26 25 26 26 25 25 25 24 24 24 24 24 24 24 23 23 22 23 22
10 12 13 14 15 15 15 16 17 17 18 19 17 17 18 18 19 19 20 20 20 18 17 19 22 23 24 24 23 22 20 19 19 19 20 20 21 22 23 23 23 24 25 27 27 26 26 26 26 25 25 25 24 24 24 24 24 24 23 23 22 22 22
9 12 13 13 13 13 15 18 19 19 19 18 16 16 17 17 17 17 18 17 16 15 16 17 19 20 22 22 21 19 18 18 18 18 18 19 19 20 21 22 23 23 24 26 27 26 26 26 26 26 25 25 25 25 24 24 24 24 23 22 22 22 23
10 11 11 11 11 13 16 18 18 19 20 18 16 16 16 16 16 16 16 16 15 14 15 16 18 19 20 21 20 18 17 17 17 17 17 17 18 18 20 21 22 22 23 25 27 27 26 26 26 26 25 25 25 24 24 24 23 23 23 22 22 22 23
10 10 10 10 12 14 16 15 14 16 18 17 15 15 14 14 14 14 14 14 13 13 14 16 18 19 20 21 19 17 16 16 16 16 16 16 16 17 19 20 21 22 22 24 26 27 26 26 26 26 25 25 25 25 24 24 23 23 23 22 22 22 23
9 9 10 11 13 13 13 12 11 12 13 14 14 14 12 12 13 13 13 12 11 12 14 15 17 18 20 21 20 17 15 14 14 15 15 15 16 16 18 20 21 22 23 24 26 27 26 26 26 26 26 25 25 25 25 24 23 23 22 22 22 23 24
9 9 9 10 12 12 11 10 10 11 11 12 13 13 12 11 12 13 12 11 10 11 12 14 16 18 21 22 20 16 13 13 13 14 15 15 15 16 19 20 21 22 24 25 26 26 26 26 26 26 25 25 25 25 25 24 23 23 22 22 23 24 25
9 9 8 9 11 12 10 9 9 9 10 11 11 13 13 11 11 12 12 11 10 10 11 13 15 18 20 20 17 13 11 11 12 12 13 15 15 16 19 21 21 22 24 25 25 26 25 26 26 25 25 25 25 24 24 24 23 23 23 23 24 25 26
9 9 8 10 12 11 9 9 9 8 9 9 11 13 13 11 11 11 11 10 9 9 10 12 13 14 15 14 12 10 10 10 11 11 12 13 14 16 19 20 21 21 23 24 25 25 25 25 26 25 25 25 24 24 24 24 23 23 24 24 25 26 25
9 9 8 10 12 11 9 9 9 8 8 10 12 12 10 10 10 10 9 9 8 8 9 10 10 10 10 10 10 10 10 10 10 11 12 13 15 16 18 19 20 21 23 24 24 25 25 25 25 25 25 25 24 24 23 23 24 24 24 25 25 25 25
9 9 8 9 10 9 8 9 9 8 8 10 10 9 8 9 10 10 9 8 8 8 8 9 9 9 9 9 9 9 9 9 10 11 12 13 14 16 17 19 20 21 23 24 24 25 25 25 25 25 25 24 24 24 24 25 25 24 24 24 25 25 25
9 9 8 8 9 8 8 8 8 8 7 7 7 7 9 9 9 9 9 8 7 7 8 8 8 8 8 9 9 9 9 9 10 10 11 12 14 15 17 18 19 21 22 23 24 25 25 24 25 25 24 24 24 24 25 25 25 24 24 24 25 25 25
7 8 8 7 7 7 7 7 7 6 6 5 6 7 9 9 9 8 8 7 7 7 7 7 7 8 8 8 8 8 9 9 9 10 11 12 14 15 16 17 19 20 21 21 23 25 25 24 24 24 24 23 24 24 25 25 24 24 24 24 25 25 25
6 6 6 7 7 7 7 7 6 6 6 5 6 6 7 8 9 8 7 6 6 6 6 7 7 7 7 8 8 8 9 9 9 10 11 12 13 15 16 17 18 20 21 21 22 23 24 24 24 23 23 23 23 24 24 24 24 24 23 24 24 25 25
6 6 6 7 7 7 6 6 5 5 5 5 5 6 7 7 8 8 7 7 6 6 6 6 7 7 7 7 7 8 8 9 9 10 11 12 13 15 16 17 18 19 20 21 21 21 22 22 23 23 23 23 23 23 23 24 24 23 23 24 24 25 25
6 6 7 7 7 7 6 6 5 5 5 5 5 5 6 6 7 8 8 7 6 6 6 6 7 7 7 7 7 8 8 8 9 9 10 11 13 14 15 16 17 18 19 20 20 20 21 21 22 22 22 22 22 23 23 23 23 23 23 24 24 25 25
6 6 7 7 7 7 6 5 5 5 5 5 5 5 5 6 7 8 8 7 7 7 6 6 6 7 7 7 7 7 7 8 9 9 9 11 12 14 15 16 16 17 18 19 19 20 20 21 21 21 21 21 21 22 23 23 23 23 23 23 24 24 24
6 6 6 6 6 7 6 5 5 5 5 5 5 5 5 6 6 7 8 8 7 6 6 6 6 7 7 7 7 7 7 8 9 9 9 10 11 13 15 16 16 16 17 18 19 19 19 20 20 20 21 21 21 22 23 23 23 23 23 23 24 23 23
5 5 5 4 4 5 5 5 5 4 4 4 4 5 5 5 6 7 7 7 7 6 6 6 7 7 7 8 7 7 7 8 9 9 9 10 11 12 14 16 16 16 17 17 18 18 19 19 20 20 20 21 21 21 22 22 22 23 23 23 23 23 22
4 5 4 4 4 4 5 5 4 4 4 4 4 4 5 5 5 6 7 7 7 6 6 7 7 7 8 8 8 7 7 8 9 9 9 10 10 11 14 16 16 16 16 17 17 18 18 18 19 19 19 20 20 20 21 21 22 22 22 22 22 22 22
5 4 4 4 4 4 4 4 4 4 4 4 4 4 4 5 5 6 6 6 6 6 6 7 7 6 7 8 8 7 8 8 9 9 9 9 10 11 13 15 15 16 16 16 16 17 17 18 18 18 19 19 19 20 20 20 21 21 21 22 22 22 22
5 4 4 4 4 4 4 4 4 4 3 3 4 4 4 4 5 5 6 6 6 6 6 7 7 7 7 7 8 8 8 8 8 9 9 9 10 10 12 14 15 15 15 15 16 16 17 17 18 18 18 19 19 19 19 19 20 20 21 21 22 22 21